Flag for Germany Weather past 2 weeks in Hilden, North Rhine-Westphalia, Germany

Now
72 °F

Scattered clouds.


Feels Like: 75 °F
Forecast: 57 / 78 °F
Wind: 8 mph from North

Location: Duesseldorf

Current Time: Jul 25, 2014 at 6:57:58 PM

Latest Report: Jul 25, 2014 at 6:20 PM


Visibility: N/A

Pressure: 29.92 "Hg

Humidity: 69%

Dew point: 61 °F

Location of HildenLocation

Historic Weather in Hilden — Graph

°F

Hilden temperature yesterday

Maximum temperature yesterday: 81 °F (at 2:50 PM)
Minimum temperature yesterday: 64 °F (at 3:50 AM)
Average temperature yesterday: 70 °F

Past Weeks' High & Low Weather Summary

 TemperatureHumidityPressure
High93 °F (Jul 19, 3:50 PM)100% (Jul 16, 6:20 AM)30.18 "Hg (Jul 16, 6:20 AM)
Low55 °F (Jul 15, 1:50 AM)23% (Jul 19, 4:50 PM)29.74 "Hg (Jul 13, 3:50 PM)
Average71 °F71%29.97 "Hg
* Reported Jul 10 5:20 PM — Jul 25 5:20 PM, Hilden, Weather by CustomWeather, © 2014

Note: Actual official high and low records may vary slightly from our data, if they occured in-between our weather recording intervals... More about our weather records

Advertising

Hilden weather history for previous 24 hours

 ConditionsComfort  
Time TempWeatherWind HumidityBarometerVisibility
5:20 PM
Jul 25
72 °FPassing clouds.9 mph65%29.92 "HgN/A
4:50 PM72 °FPassing clouds.9 mph65%29.92 "HgN/A
4:20 PM70 °FScattered clouds.10 mph73%29.92 "HgN/A
3:50 PM72 °FScattered clouds.12 mph65%29.92 "HgN/A
3:20 PM70 °FScattered clouds.10 mph69%29.92 "HgN/A
2:20 PM68 °FBroken clouds.9 mph73%29.95 "HgN/A
1:50 PM68 °FBroken clouds.9 mph73%29.95 "HgN/A
1:20 PM66 °FBroken clouds.9 mph78%29.95 "HgN/A
12:50 PM66 °FBroken clouds.9 mph78%29.95 "HgN/A
12:20 PM68 °FBroken clouds.10 mph73%29.98 "HgN/A
11:50 AM66 °FPartly sunny.12 mph78%29.98 "HgN/A
11:20 AM66 °FBroken clouds.9 mph78%29.98 "HgN/A
10:50 AM66 °FPartly sunny.10 mph73%29.98 "HgN/A
10:20 AM66 °FPartly sunny.7 mph78%29.98 "HgN/A
9:50 AM66 °FPartly sunny.9 mph73%29.98 "HgN/A
9:20 AM64 °FPartly sunny.9 mph78%29.98 "HgN/A
8:50 AM64 °FBroken clouds.6 mph78%29.98 "HgN/A
8:20 AM64 °FSunny.6 mph78%29.98 "Hg10 mi
7:50 AM64 °FBroken clouds.7 mph78%29.98 "HgN/A
7:20 AM64 °FSunny.7 mph78%29.98 "Hg10 mi
6:50 AM63 °FSunny.9 mph83%29.95 "Hg10 mi
6:20 AM63 °FClear.9 mph83%29.98 "Hg10 mi
5:50 AM63 °FClear.9 mph77%29.98 "Hg10 mi
5:20 AM63 °FClear.10 mph77%29.98 "Hg10 mi
4:50 AM63 °FClear.8 mph77%29.98 "Hg10 mi
4:20 AM63 °FClear.9 mph77%29.95 "Hg10 mi
3:50 AM63 °FClear.6 mph83%29.98 "Hg10 mi
3:20 AM63 °FClear.6 mph83%29.98 "Hg10 mi
2:50 AM63 °FClear.6 mph83%29.98 "Hg10 mi
2:20 AM64 °FClear.5 mph78%29.98 "Hg10 mi
1:50 AM64 °FClear.6 mph78%29.98 "Hg10 mi
1:20 AM64 °FClear.6 mph78%29.98 "Hg10 mi
12:50 AM64 °FClear.5 mph78%29.98 "Hg10 mi
12:20 AM64 °FClear.8 mph78%29.98 "Hg10 mi
11:50 PM
Jul 24
64 °FPassing clouds.6 mph83%29.98 "HgN/A
11:20 PM64 °FPassing clouds.5 mph83%29.98 "HgN/A
10:50 PM64 °FPassing clouds.5 mph83%29.98 "HgN/A
10:20 PM64 °FSunny.2 mph88%29.98 "Hg10 mi
9:50 PM64 °FSunny.5 mph88%29.98 "Hg10 mi
9:20 PM66 °FSunny.5 mph83%29.98 "Hg10 mi
8:50 PM66 °FPassing clouds.5 mph88%29.98 "HgN/A
8:20 PM66 °FScattered showers. Scattered clouds.5 mph83%29.95 "HgN/A
7:50 PM66 °FThunderstorms. Scattered clouds.6 mph73%29.95 "HgN/A
7:20 PM70 °FThunderstorms. Scattered clouds.6 mph60%29.95 "HgN/A
6:50 PM72 °FBroken clouds.9 mph57%29.95 "HgN/A
6:20 PM73 °FThundershowers. Partly sunny.8 mph53%29.95 "HgN/A
Weather by CustomWeather, © 2014

See weather overviewHow to use our weather pages